Weather History for Homestead AFB, FL

Change the Weather History Date:

Saturday, December 14, 2013

  Actual Average Record
Temperature  
Mean Temperature 76 °F -  
Max Temperature 82 °F 79 °F 87 °F (1963)
Min Temperature 71 °F 59 °F 30 °F (1962)
Cooling Degree Days 12    
Growing Degree Days 26 (Base 50)    
Moisture  
Dew Point 71 °F    
Average Humidity 84    
Maximum Humidity 94    
Minimum Humidity 69    
Precipitation  
Precipitation 0.06 in - - ()
Sea Level Pressure  
Sea Level Pressure 30.07 in    
Wind  
Wind Speed 9 mph (ESE)    
Max Wind Speed 14 mph    
Max Gust Speed 24 mph    
Visibility 10 miles    
Events Rain    
Averages and records for this station are not official NWS values.
T = Trace of Precipitation, MM = Missing Value Source: NWS Daily Summary

Daily Weather History Graph

Daily Weather History Graph

Search for Another Location

Airport:

Trip Planner

Search our weather history database for the weather conditions in past years. The results will help you decide how hot, cold, wet, or windy it might be!

Date:

Astronomy

Dec. 14, 2013 Rise Set
Actual Time 6:59 AM EST 5:33 PM EST
Civil Twilight 6:34 AM EST 5:58 PM EST
Nautical Twilight 6:05 AM EST 6:27 PM EST
Astronomical Twilight 5:37 AM EST 6:55 PM EST
Moon 3:45 PM EST (12/14) 4:29 AM EST (12/14)
Length of Visible Light 11h 24m
Length of Day
10h 33m
Waxing Gibbous, 93% of the Moon is Illuminated
Dec 14
Waxing Gibbous
Dec 17
Full
Dec 25
Last Quarter
Jan 1
New
Jan 7
First Quarter

Hourly Weather History & Observations

Time (EST) Temp. Heat Index Dew Point Humidity Pressure Visibility Wind Dir Wind Speed Gust Speed Precip Events Conditions
12:03 AM 71.6 °F - 69.8 °F 94% 30.10 in 3.0 mi East 10.4 mph - N/A Rain Rain
12:08 AM 71.6 °F - 69.8 °F 94% 30.10 in 6.0 mi East 8.1 mph - N/A Rain Light Rain
12:13 AM 71.6 °F - 69.8 °F 94% 30.09 in 10.0 mi East 8.1 mph - N/A Rain Light Rain
12:14 AM 71.6 °F - 69.8 °F 94% 30.09 in 10.0 mi East 9.2 mph - N/A   Mostly Cloudy
12:27 AM 73.4 °F - 69.8 °F 88% 30.09 in 7.0 mi ESE 9.2 mph - N/A Rain Light Rain
12:37 AM 73.4 °F - 69.8 °F 88% 30.09 in 9.0 mi East 8.1 mph - N/A Rain Light Rain
12:42 AM 73.4 °F - 69.8 °F 88% 30.09 in 10.0 mi East 6.9 mph - N/A   Light Drizzle
12:43 AM 73.4 °F - 69.8 °F 88% 30.09 in 10.0 mi East 6.9 mph - N/A   Partly Cloudy
12:58 AM 73.2 °F - 70.3 °F 91% 30.10 in 10.0 mi ESE 9.2 mph - 0.06 in   Scattered Clouds
1:58 AM 74.1 °F - 70.0 °F 87% 30.09 in 10.0 mi ESE 10.4 mph - N/A   Clear
2:58 AM 74.5 °F - 69.8 °F 85% 30.07 in 10.0 mi ESE 11.5 mph - N/A   Partly Cloudy
3:58 AM 74.7 °F - 69.6 °F 84% 30.07 in 10.0 mi ESE 8.1 mph - N/A   Clear
4:58 AM 74.5 °F - 69.4 °F 84% 30.06 in 10.0 mi ESE 8.1 mph - N/A   Clear
5:58 AM 74.7 °F - 70.0 °F 85% 30.07 in 10.0 mi ESE 6.9 mph - N/A   Clear
6:58 AM 74.7 °F - 70.0 °F 85% 30.08 in 10.0 mi ESE 8.1 mph - N/A   Partly Cloudy
7:58 AM 76.1 °F - 70.2 °F 82% 30.09 in 10.0 mi ESE 9.2 mph - N/A   Clear
8:58 AM 78.1 °F - 71.1 °F 79% 30.12 in 10.0 mi ESE 12.7 mph - N/A   Scattered Clouds
9:58 AM 80.1 °F 83.4 °F 70.9 °F 73% 30.12 in 10.0 mi ESE 9.2 mph 19.6 mph N/A   Partly Cloudy
10:58 AM 81.3 °F 85.6 °F 71.4 °F 72% 30.10 in 10.0 mi ESE 13.8 mph 24.2 mph N/A   Scattered Clouds
11:58 AM 82.2 °F 86.6 °F 71.2 °F 69% 30.07 in 10.0 mi SE 11.5 mph 19.6 mph N/A   Scattered Clouds
12:58 PM 81.0 °F 84.9 °F 71.1 °F 72% 30.04 in 10.0 mi SE 12.7 mph 23.0 mph N/A   Partly Cloudy
1:58 PM 79.7 °F - 71.1 °F 75% 30.02 in 10.0 mi SE 12.7 mph - N/A   Clear
2:58 PM 79.5 °F - 71.1 °F 75% 30.01 in 10.0 mi SE 10.4 mph - N/A   Partly Cloudy
3:58 PM 80.1 °F 83.6 °F 71.2 °F 74% 30.01 in 10.0 mi ESE 12.7 mph - N/A   Scattered Clouds
4:58 PM 78.3 °F - 71.1 °F 78% 30.03 in 10.0 mi SE 10.4 mph - N/A   Partly Cloudy
5:58 PM 76.6 °F - 71.8 °F 85% 30.04 in 10.0 mi SE 5.8 mph - N/A   Mostly Cloudy
6:58 PM 76.1 °F - 71.8 °F 86% 30.04 in 10.0 mi SE 5.8 mph - N/A   Partly Cloudy
7:58 PM 75.2 °F - 71.8 °F 89% 30.04 in 10.0 mi SSE 4.6 mph - N/A   Clear
8:58 PM 75.4 °F - 72.3 °F 90% 30.04 in 10.0 mi SE 5.8 mph - N/A   Clear
9:58 PM 75.4 °F - 72.3 °F 90% 30.04 in 10.0 mi SSE 4.6 mph - N/A   Clear
10:58 PM 74.8 °F - 72.3 °F 92% 30.04 in 10.0 mi South 4.6 mph - N/A   Partly Cloudy
11:58 PM 74.5 °F - 72.1 °F 92% 30.03 in 10.0 mi SSE 5.8 mph - N/A   Clear